FW9813 Weather Reports


Display with metric or nautical units.
time (UTC)temp
F
wind
direction
speed
MPH
gust
MPH
rain 1hr
in
rain 24hr
in
rain mn
in
humidity
%
barometer
mb
20260507051542 37 0 0.0 0.0 0.00 0.00 0.00 64 1014.2
20260507050038 38 0 0.0 0.0 0.00 0.00 0.00 64 1014.3
20260507044541 38 0 0.0 0.0 0.00 0.00 0.00 63 1014.4
20260507043047 39 0 0.0 0.0 0.00 0.00 0.00 63 1014.5
20260507041546 39 0 0.0 0.0 0.00 0.00 0.00 60 1014.6
20260507040040 39 0 0.0 0.0 0.00 0.00 0.00 58 1014.7
20260507034549 40 0 0.0 0.0 0.00 0.00 0.00 57 1014.7
20260507033053 40 0 0.0 2.0 0.00 0.00 0.00 56 1014.7
20260507031543 40 0 0.0 0.0 0.00 0.00 0.00 56 1014.9
20260507030041 41 0 0.0 0.0 0.00 0.00 0.00 54 1014.8
20260507024551 41 0 0.0 0.0 0.00 0.00 0.00 54 1014.8
20260507023041 42 0 0.0 3.0 0.00 0.00 0.00 53 1014.9
20260507021555 42 194 1.0 5.0 0.00 0.00 0.00 53 1015.0
20260507020044 42 217 0.0 2.0 0.00 0.00 0.00 52 1015.0
20260507014538 42 0 0.0 3.0 0.00 0.00 0.00 52 1014.9
20260507013041 43 0 0.0 2.0 0.00 0.00 0.00 51 1014.9
20260507011539 43 213 2.0 6.0 0.00 0.00 0.00 50 1014.9
20260507010041 43 212 3.0 10.0 0.00 0.00 0.00 49 1015.0
20260507004544 44 229 2.0 8.0 0.00 0.00 0.00 50 1014.9
20260507003042 44 217 2.0 8.0 0.00 0.00 0.00 50 1015.1
20260507001604 44 209 2.0 8.0 0.00 0.00 0.00 49 1015.0
20260507000040 44 0 2.0 8.0 0.00 0.00 0.00 49 1015.1
20260506234556 44 176 0.0 6.0 0.00 0.00 0.00 49 1015.1
20260506233045 44 0 2.0 7.0 0.00 0.00 0.00 48 1015.2
20260506231549 44 216 5.0 11.0 0.00 0.00 0.00 47 1015.3
20260506230041 44 186 3.0 9.0 0.00 0.00 0.00 48 1015.4
20260506224552 44 213 2.0 7.0 0.00 0.00 0.00 49 1015.3
20260506223049 44 209 2.0 9.0 0.00 0.00 0.00 48 1015.4
20260506221536 45 193 2.0 7.0 0.00 0.00 0.00 49 1015.5
20260506220046 44 159 3.0 10.0 0.00 0.00 0.00 49 1015.5
20260506214537 44 186 1.0 5.0 0.00 0.00 0.00 50 1015.5
20260506213040 44 190 4.0 11.0 0.00 0.00 0.00 48 1015.6
20260506211550 44 152 3.0 9.0 0.00 0.00 0.00 49 1015.8
20260506210041 44 221 5.0 11.0 0.00 0.00 0.00 49 1015.8
20260506204540 44 123 3.0 9.0 0.00 0.00 0.00 49 1015.9
20260506203037 44 211 4.0 11.0 0.00 0.00 0.00 50 1016.0
20260506201546 44 186 3.0 11.0 0.00 0.00 0.00 50 1016.1
20260506200043 44 216 3.0 14.0 0.00 0.00 0.00 50 1016.2
20260506194545 43 195 2.0 8.0 0.00 0.00 0.00 51 1016.0
20260506193043 43 284 2.0 8.0 0.00 0.00 0.00 53 1016.2
20260506191547 42 165 2.0 10.0 0.00 0.00 0.00 53 1016.3
20260506190047 41 165 2.0 8.0 0.00 0.00 0.00 54 1016.4
20260506184545 41 234 4.0 11.0 0.00 0.00 0.00 53 1016.4
20260506183043 41 205 2.0 13.0 0.00 0.00 0.00 54 1016.5
20260506181552 41 233 5.0 12.0 0.00 0.00 0.00 54 1016.6
20260506180041 41 172 4.0 13.0 0.00 0.00 0.00 55 1016.5
20260506174545 40 222 4.0 15.0 0.00 0.00 0.00 55 1016.7
20260506173047 41 163 3.0 15.0 0.00 0.00 0.00 56 1016.8
20260506171552 40 246 5.0 11.0 0.00 0.00 0.00 56 1017.0
20260506170045 40 159 5.0 11.0 0.00 0.00 0.00 56 1017.1
20260506164540 40 220 4.0 10.0 0.00 0.00 0.00 56 1017.0
20260506163040 40 210 4.0 11.0 0.00 0.00 0.00 57 1017.1
20260506161537 40 215 3.0 12.0 0.00 0.00 0.00 56 1016.9
20260506160058 40 231 3.0 12.0 0.00 0.00 0.00 55 1016.9
20260506154550 40 188 2.0 12.0 0.00 0.00 0.00 57 1016.9
20260506153042 40 201 4.0 10.0 0.00 0.00 0.00 57 1016.8
20260506151539 39 285 4.0 12.0 0.00 0.00 0.00 58 1016.8
20260506150038 38 191 5.0 13.0 0.00 0.00 0.00 58 1016.9
20260506144541 38 206 3.0 12.0 0.00 0.00 0.00 59 1016.8
20260506143036 38 284 4.0 12.0 0.00 0.00 0.00 59 1016.9
20260506141543 38 198 3.0 12.0 0.00 0.00 0.00 60 1016.8
20260506140043 38 227 3.0 10.0 0.00 0.00 0.00 59 1016.8
20260506134538 38 234 2.0 10.0 0.00 0.00 0.00 61 1016.7
20260506133041 38 186 4.0 10.0 0.00 0.00 0.00 60 1016.5
20260506131552 38 206 1.0 10.0 0.00 0.00 0.00 62 1016.2
20260506130041 37 200 3.0 7.0 0.00 0.00 0.00 64 1016.0
20260506124546 36 212 2.0 8.0 0.00 0.00 0.00 67 1015.8
20260506123041 34 205 2.0 7.0 0.00 0.00 0.00 69 1015.9
20260506121541 33 202 2.0 6.0 0.00 0.00 0.00 72 1015.7
20260506120041 31 0 1.0 6.0 0.00 0.00 0.00 75 1015.7
20260506114540 30 217 0.0 3.0 0.00 0.00 0.00 77 1015.6
20260506113047 29 202 0.0 3.0 0.00 0.00 0.00 77 1015.3
20260506111543 28 215 0.0 2.0 0.00 0.00 0.00 78 1015.5
20260506110041 28 0 0.0 0.0 0.00 0.00 0.00 77 1015.5
20260506104547 28 213 1.0 3.0 0.00 0.00 0.00 78 1015.4
20260506103040 28 0 0.0 1.0 0.00 0.00 0.00 77 1015.1
20260506101537 27 0 0.0 1.0 0.00 0.00 0.00 77 1014.9
20260506100044 28 0 0.0 0.0 0.00 0.00 0.00 76 1014.9
20260506094556 28 0 0.0 0.0 0.00 0.00 0.00 76 1015.0
20260506093042 28 0 0.0 0.0 0.00 0.00 0.00 76 1015.0
20260506091541 28 0 0.0 0.0 0.00 0.00 0.00 75 1014.9
20260506090040 29 0 0.0 0.0 0.00 0.00 0.00 74 1014.7
20260506084543 30 0 0.0 0.0 0.00 0.00 0.00 73 1014.5
20260506083038 30 0 0.0 2.0 0.00 0.00 0.00 72 1014.5
20260506081544 29 0 0.0 1.0 0.00 0.00 0.00 74 1014.7
20260506073041 30 0 0.0 0.0 0.00 0.00 0.00 72 1014.3
20260506071542 31 0 0.0 0.0 0.00 0.00 0.00 70 1014.3
20260506061541 34 0 0.0 1.0 0.00 0.00 0.00 65 1014.2